Weather History for Fallon NAS, NV

Change the Weather History Date:

Monday, May 28, 2012

  Actual Average Record
Temperature  
Mean Temperature 60 °F -  
Max Temperature 79 °F 77 °F 97 °F (1983)
Min Temperature 41 °F 43 °F 33 °F (1929)
Degree Days  
Heating Degree Days 5    
Growing Degree Days 10 (Base 50)    
Moisture  
Dew Point 31 °F    
Average Humidity 37    
Maximum Humidity 73    
Minimum Humidity 14    
Precipitation  
Precipitation 0.00 in - - ()
Sea Level Pressure  
Sea Level Pressure 29.91 in    
Wind  
Wind Speed 4 mph (NNW)    
Max Wind Speed 10 mph    
Max Gust Speed 17 mph    
Visibility 10 miles    
Events      
Averages and records for this station are not official NWS values.
T = Trace of Precipitation, MM = Missing Value Source: NWS Daily Summary

Daily Weather History Graph

Daily Weather History Graph

Search for Another Location

Airport:

Trip Planner

Search our weather history database for the weather conditions in past years. The results will help you decide how hot, cold, wet, or windy it might be!

Date:

Astronomy

May. 28, 2012 Rise Set
Actual Time 5:31 AM PDT 8:13 PM PDT
Civil Twilight 4:59 AM PDT 8:44 PM PDT
Nautical Twilight 4:20 AM PDT 9:24 PM PDT
Astronomical Twilight 3:36 AM PDT 10:09 PM PDT
Moon 12:45 PM PDT (5/28) 12:54 AM PDT (5/28)
Length of Visible Light 15h 45m
Length of Day
14h 42m
Waxing Crescent, 49% of the Moon is Illuminated
May 28
Waxing Crescent
May 28
First Quarter
Jun 4
Full
Jun 11
Last Quarter
Jun 19
New

Hourly Weather History & Observations

Time (PDT) Temp. Windchill Dew Point Humidity Pressure Visibility Wind Dir Wind Speed Gust Speed Precip Events Conditions
12:56 AM 44.1 °F 42.5 °F 30.9 °F 60% 29.96 in 10.0 mi SSE 3.5 mph - N/A   Clear
1:56 AM 45.0 °F 42.6 °F 33.1 °F 63% 29.96 in 10.0 mi SE 4.6 mph - N/A   Clear
2:56 AM 46.9 °F - 33.1 °F 59% 29.96 in 10.0 mi SW 4.6 mph - N/A   Clear
3:56 AM 44.1 °F 41.5 °F 32.0 °F 63% 29.96 in 10.0 mi WSW 4.6 mph - N/A   Clear
4:56 AM 44.1 °F 41.5 °F 33.1 °F 65% 29.96 in 10.0 mi SW 4.6 mph - N/A   Clear
5:56 AM 41.0 °F 37.1 °F 33.1 °F 73% 29.96 in 10.0 mi South 5.8 mph - N/A   Clear
6:56 AM 48.9 °F - 35.1 °F 59% 29.97 in 10.0 mi SSE 4.6 mph - N/A   Clear
7:56 AM 54.0 °F - 36.0 °F 51% 29.97 in 10.0 mi Calm Calm - N/A   Clear
8:56 AM 59.0 °F - 36.0 °F 42% 29.97 in 10.0 mi Calm Calm - N/A   Clear
9:56 AM 63.0 °F - 35.1 °F 35% 29.96 in 10.0 mi NW 4.6 mph - N/A   Clear
10:56 AM 64.9 °F - 32.0 °F 29% 29.94 in 10.0 mi Calm Calm - N/A   Clear
11:56 AM 69.1 °F - 32.0 °F 25% 29.93 in 10.0 mi Variable 5.8 mph - N/A   Clear
12:56 PM 73.0 °F - 30.0 °F 20% 29.91 in 10.0 mi Variable 6.9 mph - N/A   Clear
1:56 PM 73.9 °F - 27.0 °F 18% 29.89 in 10.0 mi Calm Calm - N/A   Clear
2:56 PM 75.9 °F - 27.0 °F 16% 29.88 in 10.0 mi NW 9.2 mph 17.3 mph N/A   Clear
3:56 PM 75.9 °F - 27.0 °F 16% 29.86 in 10.0 mi Calm Calm - N/A   Clear
4:56 PM 78.1 °F - 27.0 °F 15% 29.85 in 10.0 mi NE 9.2 mph - N/A   Clear
5:56 PM 79.0 °F - 26.1 °F 14% 29.84 in 10.0 mi North 9.2 mph - N/A   Clear
6:56 PM 77.0 °F - 27.0 °F 16% 29.84 in 10.0 mi Variable 3.5 mph - N/A   Clear
7:56 PM 73.0 °F - 27.0 °F 18% 29.84 in 10.0 mi NE 3.5 mph - N/A   Clear
8:56 PM 68.0 °F - 32.0 °F 26% 29.86 in 10.0 mi NW 10.4 mph - N/A   Clear
9:56 PM 63.0 °F - 33.1 °F 33% 29.87 in 10.0 mi NNW 6.9 mph - N/A   Clear
10:56 PM 59.0 °F - 34.0 °F 39% 29.88 in 10.0 mi North 4.6 mph - N/A   Clear
11:56 PM 55.9 °F - 32.0 °F 40% 29.89 in 10.0 mi East 5.8 mph - N/A   Clear